Location: Bli��� Lhota
(48.7570°N, 14.0120°E)
Time: 09:19:33
(UTC+00:00)

Cosmos 1867 - Pass Details

Date: 18 September 2020
Orbit: 777 x 799 km, 65.0° (Epoch: 27 October)

Event Time Altitude Azimuth Distance (km) Brightness Sun altitude
Rises 18:26:01 0° 320° (NW) 3,313 7.8 -13.2°
Reaches altitude 10° 18:28:27 10° 319° (NW) 2,381 7.0 -13.6°
Maximum altitude 18:33:55 76° 235° (SW) 826 3.7 -14.4°
Enters shadow 18:38:36 14° 151° (SSE) 2,077 5.3 -15.1°
